Location: Newark
(46.9000°N, 28.3500°E)
Time: 09:02:05
(UTC+00:00)

Vanguard 1 Rocket - Pass Details

Date: 25 August 2019
Orbit: 652 x 4225 km, 34.3° (Epoch: 15 September)

Event Time Altitude Azimuth Distance (km) Brightness Sun altitude
Rises 04:10:46 0° 255° (WSW) 3,383 9.7 8.2°
Reaches altitude 10° 04:13:39 10° 236° (SW) 2,735 9.4 8.7°
Maximum altitude 04:18:05 19° 192° (SSW) 2,635 9.6 9.5°
Drops below altitude 10° 04:24:22 10° 153° (SSE) 4,062 11.1 10.5°
Sets 04:30:06 0° 138° (SE) 5,788 12.1 11.5°
